Fort Huachuca, AZ

5:26 PM MST on December 03, 2016 (GMT -0700)
Sierra Vista Municipal-Libby Army Air Field

Weather History for KFHU - October, 2011

Change the Weather History Date:

Wednesday, October 5, 2011

  Actual Average Record
Temperature  
Mean Temperature 66 °F -  
Max Temperature 78 °F 81 °F 90 °F (1982)
Min Temperature 53 °F 59 °F 48 °F (1984)
Growing Degree Days 16 (Base 50)    
Moisture  
Dew Point 37 °F    
Average Humidity 39    
Maximum Humidity 72    
Minimum Humidity 14    
Precipitation  
Precipitation 0.00 in - - ()
Sea Level Pressure  
Sea Level Pressure 29.83 in    
Wind  
Wind Speed 8 mph (SW)    
Max Wind Speed 18 mph    
Max Gust Speed 30 mph    
Visibility 10 miles    
Events      
Averages and records for this station are not official NWS values.
T = Trace of Precipitation, MM = Missing Value Source: NWS Daily Summary

Daily Weather History Graph

Daily Weather History Graph

Search for Another Location

Airport or City:

Trip Planner

Search our weather history database for the weather conditions in past years. The results will help you decide how hot, cold, wet, or windy it might be!

Date:

Astronomy

Oct. 05, 2011 Rise Set
Actual Time 6:17 AM MST 6:01 PM MST
Civil Twilight 5:53 AM MST 6:25 PM MST
Nautical Twilight 5:25 AM MST 6:53 PM MST
Astronomical Twilight 4:56 AM MST 7:22 PM MST
Moon 2:24 PM MST (10/5) 12:29 AM MST (10/5)
Length of Visible Light 12h 32m
Length of Day
11h 43m
Waxing Gibbous, 67% of the Moon is Illuminated
Oct 5
Waxing Gibbous
Oct 11
Full
Oct 19
Last Quarter
Oct 26
New
Nov 2
First Quarter

Hourly Weather History & Observations

Time (MST) Temp. Dew Point Humidity Pressure Visibility Wind Dir Wind Speed Gust Speed Precip Events Conditions
12:56 AM 57.0 °F 42.1 °F 57% 29.85 in 10.0 mi West 6.9 mph - N/A   Clear
1:56 AM 55.4 °F 42.8 °F 63% 29.86 in 10.0 mi WNW 9.2 mph - N/A   Clear
2:56 AM 55.0 °F 42.1 °F 62% 29.83 in 10.0 mi West 5.8 mph - N/A   Clear
3:56 AM 55.9 °F 43.0 °F 62% 29.84 in 10.0 mi West 3.5 mph - N/A   Clear
4:56 AM 53.1 °F 44.1 °F 71% 29.86 in 10.0 mi Calm Calm - N/A   Clear
5:55 AM 53.6 °F 44.6 °F 72% 29.88 in 10.0 mi Variable 3.5 mph - N/A   Partly Cloudy
6:55 AM 57.2 °F 44.6 °F 63% 29.88 in 10.0 mi Variable 4.6 mph - N/A   Partly Cloudy
7:55 AM 62.6 °F 42.8 °F 48% 29.89 in 10.0 mi Variable 4.6 mph - N/A   Partly Cloudy
8:55 AM 66.2 °F 39.2 °F 37% 29.89 in 10.0 mi Variable 3.5 mph - N/A   Partly Cloudy
9:55 AM 69.8 °F 35.6 °F 28% 29.88 in 10.0 mi Variable 2.3 mph - N/A   Partly Cloudy
10:55 AM 73.4 °F 33.8 °F 23% 29.86 in 10.0 mi SW 11.5 mph 17.3 mph N/A   Partly Cloudy
11:55 AM 75.2 °F 30.2 °F 19% 29.85 in 10.0 mi South 8.1 mph - N/A   Partly Cloudy
12:55 PM 77.0 °F 32.0 °F 19% 29.83 in 10.0 mi SW 11.5 mph 24.2 mph N/A   Partly Cloudy
1:55 PM 78.8 °F 24.8 °F 14% 29.81 in 10.0 mi SSW 11.5 mph 23.0 mph N/A   Partly Cloudy
2:55 PM 78.8 °F 28.4 °F 16% 29.80 in 10.0 mi SSW 12.7 mph 29.9 mph N/A   Mostly Cloudy
3:55 PM 77.0 °F 33.8 °F 21% 29.79 in 10.0 mi WSW 17.3 mph 24.2 mph N/A   Mostly Cloudy
4:55 PM 75.2 °F 35.6 °F 24% 29.80 in 10.0 mi SSW 18.4 mph 24.2 mph N/A   Mostly Cloudy
5:55 PM 71.6 °F 37.4 °F 29% 29.82 in 10.0 mi SSW 13.8 mph - N/A   Mostly Cloudy
6:55 PM 69.8 °F 37.4 °F 31% 29.83 in 10.0 mi SSW 5.8 mph - N/A   Mostly Cloudy
7:55 PM 68.0 °F 35.6 °F 30% 29.83 in 10.0 mi South 4.6 mph - N/A   Scattered Clouds
8:55 PM 68.0 °F 35.6 °F 30% 29.82 in 10.0 mi SSW 6.9 mph - N/A   Partly Cloudy
9:55 PM 66.2 °F 37.4 °F 35% 29.79 in 10.0 mi SSE 16.1 mph 24.2 mph N/A   Clear
10:55 PM 64.4 °F 35.6 °F 34% 29.77 in 10.0 mi SSE 12.7 mph 23.0 mph N/A   Clear
11:56 PM 64.9 °F 37.9 °F 37% 29.74 in 10.0 mi South 11.5 mph 18.4 mph N/A   Clear